| time (UTC) | temp F | wind direction | speed MPH | gust MPH | rain 1hr in | rain 24hr in | rain mn in | humidity % | barometer mb |
| 20260509201512 | 79 | 285 | 3.0 | 6.0 | 0.00 | 0.36 | 0.00 | 46 | 1008.4 |
| 20260509200008 | 78 | 278 | 2.0 | 10.0 | 0.00 | 0.36 | 0.00 | 49 | 1008.5 |
| 20260509194506 | 78 | 319 | 4.0 | 9.0 | 0.00 | 0.36 | 0.00 | 46 | 1008.5 |
| 20260509193008 | 77 | 288 | 4.0 | 9.0 | 0.00 | 0.36 | 0.00 | 44 | 1008.7 |
| 20260509191503 | 77 | 304 | 5.0 | 13.0 | 0.00 | 0.36 | 0.00 | 46 | 1008.9 |
| 20260509190001 | 76 | 289 | 5.0 | 12.0 | 0.00 | 0.36 | 0.00 | 48 | 1008.9 |
| 20260509184601 | 76 | 308 | 4.0 | 13.0 | 0.00 | 0.36 | 0.00 | 46 | 1009.0 |
| 20260509183100 | 75 | 324 | 6.0 | 12.0 | 0.00 | 0.36 | 0.00 | 50 | 1009.0 |
| 20260509181609 | 75 | 304 | 5.0 | 12.0 | 0.00 | 0.36 | 0.00 | 49 | 1009.2 |
| 20260509180112 | 74 | 291 | 8.0 | 13.0 | 0.00 | 0.36 | 0.00 | 54 | 1009.1 |
| 20260509174550 | 73 | 311 | 6.0 | 12.0 | 0.00 | 0.36 | 0.00 | 55 | 1009.2 |
| 20260509173106 | 73 | 252 | 6.0 | 13.0 | 0.00 | 0.36 | 0.00 | 57 | 1009.5 |
| 20260509171551 | 72 | 241 | 5.0 | 11.0 | 0.00 | 0.36 | 0.00 | 62 | 1009.6 |
| 20260509170049 | 71 | 248 | 3.0 | 12.0 | 0.00 | 0.36 | 0.00 | 63 | 1009.8 |
| 20260509164538 | 70 | 252 | 5.0 | 11.0 | 0.00 | 0.36 | 0.00 | 65 | 1009.7 |
| 20260509163037 | 69 | 278 | 4.0 | 11.0 | 0.00 | 0.36 | 0.00 | 67 | 1009.8 |
| 20260509161536 | 69 | 202 | 5.0 | 10.0 | 0.00 | 0.36 | 0.00 | 69 | 1009.8 |
| 20260509160030 | 68 | 246 | 3.0 | 9.0 | 0.00 | 0.36 | 0.00 | 73 | 1009.7 |
| 20260509154526 | 67 | 271 | 2.0 | 11.0 | 0.00 | 0.36 | 0.00 | 76 | 1009.7 |
| 20260509153028 | 66 | 264 | 3.0 | 8.0 | 0.00 | 0.36 | 0.00 | 77 | 1009.6 |
| 20260509151519 | 64 | 203 | 4.0 | 7.0 | 0.00 | 0.36 | 0.00 | 80 | 1009.3 |
| 20260509150015 | 63 | 267 | 2.0 | 7.0 | 0.00 | 0.36 | 0.00 | 84 | 1009.3 |
| 20260509144516 | 62 | 188 | 5.0 | 10.0 | 0.00 | 0.36 | 0.00 | 84 | 1009.4 |
| 20260509143014 | 61 | 233 | 5.0 | 10.0 | 0.00 | 0.36 | 0.00 | 86 | 1009.3 |
| 20260509141515 | 61 | 206 | 3.0 | 6.0 | 0.00 | 0.36 | 0.00 | 89 | 1009.4 |
| 20260509140004 | 59 | 235 | 3.0 | 7.0 | 0.00 | 0.36 | 0.00 | 89 | 1009.2 |
| 20260509134501 | 58 | 217 | 3.0 | 8.0 | 0.00 | 0.36 | 0.00 | 91 | 1009.1 |
| 20260509133107 | 57 | 195 | 2.0 | 5.0 | 0.00 | 0.36 | 0.00 | 93 | 1009.0 |
| 20260509131556 | 56 | 264 | 1.0 | 5.0 | 0.00 | 0.36 | 0.00 | 94 | 1009.0 |
| 20260509130100 | 56 | 217 | 2.0 | 8.0 | 0.00 | 0.36 | 0.00 | 95 | 1009.2 |
| 20260509124552 | 56 | 262 | 1.0 | 5.0 | 0.00 | 0.36 | 0.00 | 96 | 1009.2 |
| 20260509123049 | 55 | 213 | 2.0 | 6.0 | 0.00 | 0.36 | 0.00 | 96 | 1009.0 |
| 20260509121552 | 55 | 209 | 1.0 | 6.0 | 0.00 | 0.36 | 0.00 | 96 | 1009.0 |
| 20260509120048 | 55 | 212 | 1.0 | 6.0 | 0.00 | 0.36 | 0.00 | 96 | 1008.8 |
| 20260509114549 | 55 | 217 | 2.0 | 6.0 | 0.00 | 0.36 | 0.00 | 96 | 1008.8 |
| 20260509113014 | 55 | 256 | 2.0 | 8.0 | 0.00 | 0.36 | 0.00 | 96 | 1008.7 |
| 20260509111514 | 55 | 257 | 2.0 | 6.0 | 0.00 | 0.36 | 0.00 | 96 | 1008.8 |
| 20260509110012 | 55 | 250 | 2.0 | 8.0 | 0.00 | 0.36 | 0.00 | 97 | 1008.7 |
| 20260509104511 | 55 | 248 | 2.0 | 6.0 | 0.00 | 0.36 | 0.00 | 97 | 1008.6 |
| 20260509103008 | 55 | 285 | 3.0 | 8.0 | 0.00 | 0.36 | 0.00 | 97 | 1008.5 |
| 20260509101513 | 54 | 205 | 3.0 | 8.0 | 0.00 | 0.36 | 0.00 | 97 | 1008.6 |
| 20260509100007 | 54 | 214 | 2.0 | 9.0 | 0.00 | 0.36 | 0.00 | 96 | 1008.3 |
| 20260509094504 | 54 | 233 | 3.0 | 9.0 | 0.00 | 0.36 | 0.00 | 96 | 1008.2 |
| 20260509093002 | 54 | 223 | 2.0 | 7.0 | 0.00 | 0.36 | 0.00 | 96 | 1008.2 |
| 20260509091502 | 55 | 214 | 3.0 | 6.0 | 0.00 | 0.36 | 0.00 | 96 | 1008.1 |
| 20260509090001 | 55 | 215 | 0.0 | 3.0 | 0.00 | 0.36 | 0.00 | 96 | 1008.1 |
| 20260509084501 | 55 | 219 | 1.0 | 7.0 | 0.00 | 0.36 | 0.00 | 96 | 1008.2 |
| 20260509083100 | 55 | 218 | 2.0 | 7.0 | 0.00 | 0.36 | 0.00 | 96 | 1008.1 |
| 20260509081659 | 55 | 205 | 2.0 | 6.0 | 0.00 | 0.36 | 0.00 | 96 | 1008.1 |
| 20260509074603 | 55 | 215 | 3.0 | 6.0 | 0.00 | 0.36 | 0.00 | 96 | 1008.1 |
| 20260509073059 | 54 | 200 | 1.0 | 7.0 | 0.00 | 0.36 | 0.00 | 96 | 1008.1 |
| 20260509071600 | 53 | 148 | 0.0 | 2.0 | 0.00 | 0.36 | 0.00 | 96 | 1008.3 |
| 20260509070104 | 52 | 255 | 0.0 | 0.0 | 0.00 | 0.36 | 0.00 | 95 | 1008.2 |
| 20260509064552 | 53 | 255 | 0.0 | 0.0 | 0.00 | 0.36 | 0.00 | 95 | 1008.2 |
| 20260509063105 | 54 | 255 | 0.0 | 0.0 | 0.00 | 0.36 | 0.00 | 95 | 1008.4 |
| 20260509061611 | 55 | 255 | 0.0 | 1.0 | 0.00 | 0.36 | 0.00 | 95 | 1008.3 |
| 20260509060056 | 55 | 191 | 1.0 | 2.0 | 0.00 | 0.36 | 0.00 | 95 | 1008.0 |
| 20260509054546 | 55 | 202 | 1.0 | 2.0 | 0.00 | 0.36 | 0.00 | 95 | 1008.0 |
| 20260509053043 | 55 | 153 | 1.0 | 4.0 | 0.00 | 0.36 | 0.00 | 95 | 1008.0 |
| 20260509051542 | 55 | 197 | 1.0 | 4.0 | 0.00 | 0.36 | 0.00 | 95 | 1008.1 |
| 20260509050042 | 55 | 156 | 1.0 | 3.0 | 0.00 | 0.36 | 0.36 | 94 | 1008.0 |
| 20260509044540 | 55 | 125 | 1.0 | 2.0 | 0.01 | 0.36 | 0.36 | 94 | 1008.0 |
| 20260509043039 | 56 | 173 | 0.0 | 2.0 | 0.01 | 0.36 | 0.36 | 94 | 1008.3 |
| 20260509041539 | 56 | 132 | 0.0 | 1.0 | 0.01 | 0.36 | 0.36 | 94 | 1008.5 |
| 20260509040037 | 56 | 185 | 1.0 | 3.0 | 0.02 | 0.36 | 0.36 | 94 | 1008.3 |
| 20260509034537 | 56 | 189 | 2.0 | 3.0 | 0.04 | 0.35 | 0.35 | 93 | 1008.6 |
| 20260509033037 | 56 | 174 | 0.0 | 2.0 | 0.09 | 0.35 | 0.35 | 93 | 1008.7 |
| 20260509031537 | 57 | 109 | 1.0 | 3.0 | 0.14 | 0.35 | 0.35 | 93 | 1008.6 |
| 20260509030041 | 57 | 325 | 0.0 | 3.0 | 0.21 | 0.34 | 0.34 | 93 | 1009.1 |
| 20260509024538 | 57 | 14 | 0.0 | 4.0 | 0.25 | 0.31 | 0.31 | 92 | 1009.2 |
| 20260509023034 | 57 | 318 | 1.0 | 6.0 | 0.23 | 0.26 | 0.26 | 93 | 1009.4 |
| 20260509021533 | 57 | 333 | 2.0 | 6.0 | 0.20 | 0.21 | 0.21 | 93 | 1009.5 |
| 20260509020047 | 58 | 349 | 2.0 | 11.0 | 0.12 | 0.13 | 0.13 | 92 | 1009.6 |
| 20260509014543 | 58 | 319 | 2.0 | 5.0 | 0.05 | 0.06 | 0.06 | 92 | 1009.2 |
| 20260509013037 | 58 | 329 | 1.0 | 2.0 | 0.02 | 0.03 | 0.03 | 92 | 1008.9 |
| 20260509011530 | 58 | 330 | 0.0 | 1.0 | 0.00 | 0.01 | 0.01 | 91 | 1008.6 |
| 20260509010029 | 58 | 342 | 0.0 | 1.0 | 0.00 | 0.01 | 0.01 | 89 | 1008.0 |
| 20260509004528 | 59 | 342 | 0.0 | 1.0 | 0.01 | 0.01 | 0.01 | 88 | 1007.9 |
| 20260509003037 | 59 | 8 | 0.0 | 4.0 | 0.01 | 0.01 | 0.01 | 86 | 1008.4 |
| 20260509001526 | 60 | 325 | 3.0 | 8.0 | 0.01 | 0.01 | 0.01 | 84 | 1008.7 |
| 20260509000024 | 62 | 357 | 1.0 | 9.0 | 0.01 | 0.01 | 0.01 | 80 | 1008.5 |
| 20260508234523 | 64 | 323 | 2.0 | 7.0 | 0.00 | 0.00 | 0.00 | 73 | 1008.5 |
| 20260508233022 | 66 | 13 | 0.0 | 4.0 | 0.00 | 0.00 | 0.00 | 66 | 1008.5 |
| 20260508231522 | 67 | 321 | 2.0 | 7.0 | 0.00 | 0.00 | 0.00 | 64 | 1008.5 |
| 20260508230021 | 68 | 336 | 1.0 | 4.0 | 0.00 | 0.00 | 0.00 | 62 | 1008.4 |
| 20260508224520 | 69 | 337 | 1.0 | 4.0 | 0.00 | 0.00 | 0.00 | 61 | 1008.5 |
| 20260508223023 | 69 | 352 | 2.0 | 5.0 | 0.00 | 0.00 | 0.00 | 57 | 1008.3 |
| 20260508221519 | 70 | 312 | 1.0 | 6.0 | 0.00 | 0.00 | 0.00 | 58 | 1008.0 |
| 20260508220017 | 70 | 336 | 3.0 | 7.0 | 0.00 | 0.00 | 0.00 | 55 | 1008.3 |
| 20260508214518 | 70 | 320 | 3.0 | 8.0 | 0.00 | 0.00 | 0.00 | 54 | 1008.5 |
| 20260508213015 | 71 | 297 | 2.0 | 7.0 | 0.00 | 0.00 | 0.00 | 53 | 1008.7 |
| 20260508211516 | 71 | 238 | 2.0 | 8.0 | 0.00 | 0.00 | 0.00 | 54 | 1008.8 |
| 20260508210011 | 72 | 249 | 2.0 | 7.0 | 0.00 | 0.00 | 0.00 | 53 | 1009.1 |
| 20260508204510 | 71 | 300 | 3.0 | 10.0 | 0.00 | 0.00 | 0.00 | 52 | 1009.6 |
| 20260508203008 | 71 | 277 | 3.0 | 9.0 | 0.00 | 0.00 | 0.00 | 51 | 1009.6 |